Regional Weather Roundup
Issued by NWS

Home | Current Version | Previous Version | Graphics & Text | Print | Product List | Glossary On
Versions: 1 2 3 4 5 6 7 8 9 10 11 12 13 14 15 16 17 18 19 20 21 22 23 24 25 26 27 28 29 30 31 32 33 34 35 36 37 38 39 40 41 42 43 44 45 46 47 48 49 50
982
ASUS45 KBOI 261710
RWRID

IDAHO REGIONAL WEATHER ROUNDUP
NATIONAL WEATHER SERVICE BOISE ID
1100 AM MDT MON JUN 26 2017

NOTE: "FAIR" INDICATES FEW OR NO CLOUDS BELOW 12000 FEET
WITH NO SIGNIFICANT WEATHER AND/OR OBSTRUCTIONS TO VISIBILITY

IDZ012-014-261800-
SOUTHWEST IDAHO


CITY           SKY/WX    TMP DP  RH WIND       PRES   REMARKS
BOISE          SUNNY     85  44  23 SE6       29.93F
CALDWELL       SUNNY     86  49  27 SE12      29.91F
MOUNTAIN HOME  SUNNY     86  46  24 SE14G23   29.93F
$$

IDZ016-017-261800-
SOUTHCENTRAL IDAHO


CITY           SKY/WX    TMP DP  RH WIND       PRES   REMARKS
BURLEY           N/A    N/A N/A N/A MISG      30.03F
JEROME         SUNNY     83  49  30 E10       30.03F
TWIN FALLS     SUNNY     80  53  39 NE10      30.03F
$$

IDZ019>023-261800-
SOUTHEAST IDAHO


CITY           SKY/WX    TMP DP  RH WIND       PRES   REMARKS
IDAHO FALLS    SUNNY     76  54  46 CALM      30.13F
POCATELLO      SUNNY     80  51  36 N9        30.10F
REXBURG        SUNNY     74  49  41 VRB3      30.15F
$$

IDZ006-010-011-018-031-032-261800-
CENTRAL IDAHO MOUNTAINS


CITY           SKY/WX    TMP DP  RH WIND       PRES   REMARKS
MCCALL         SUNNY     72  45  37 S6        30.07F
HAILEY         MOSUNNY   79  48  34 NW9       30.16F
STANLEY          N/A     69  45  41 N3        30.21F
SALMON         SUNNY     73  46  38 CALM      30.05F
CHALLIS        MOSUNNY   74  44  34 N3        30.12F
$$

IDZ002-004-006-007-026-261800-
NORTHERN IDAHO


CITY           SKY/WX    TMP DP  RH WIND       PRES   REMARKS
LEWISTON       PTSUNNY   77  55  46 NE6       29.86F
LOWELL           N/A     75  51  43 N3        29.89F
COEUR D`ALENE  CLOUDY    75  56  51 SE7       29.91R
MULLAN PASS    MOSUNNY   72  41  32 SW7       30.12R
$$




USA.gov is the U.S. government's official web portal to all federal, state and local government web resources and services.